Tracking 22779 objects as of 14-Apr-2021
HD Live streaming from Space Station
objects crossing your sky now

SUCHAI

Track SUCHAI now!
10-day predictions
SUCHAI is classified as:


NORAD ID: 42788
Int'l Code: 2017-036Z
Perigee: 489.7 km
Apogee: 506.6 km
Inclination: 97.3 °
Period: 94.4 minutes
Semi major axis: 6869 km
RCS: Unknown
Launch date: June 23, 2017
Source: Chile (CHLE)
Launch site: SRIHARIKOTA (SRI)

Uplink (MHz):
Downlink (MHz): 437.225
Beacon (MHz): 437.229
Mode: CW
Call sign: SUCHAI
Status: Active

aabbcc
Your satellite tracking list
Your tracking list is empty




NASA's NSSDC Master Catalog

Two Line Element Set (TLE):
1 42788U 17036Z   21103.08655220  .00002008  00000-0  83338-4 0  9990
2 42788  97.2592 155.1593 0012345  54.0733 306.1648 15.24920778211525
Source of the keplerian elements: AMSAT